Year,Month,Day,Hour,Minute,Value (Times are PST for temperature in C)
2014,10,22,00,00,15.60
2014,10,22,00,01,15.60
2014,10,22,00,02,15.60
2014,10,22,00,03,15.60
2014,10,22,00,04,15.60
2014,10,22,00,05,15.60
2014,10,22,00,06,15.60
2014,10,22,00,07,15.60
2014,10,22,00,08,15.60
2014,10,22,00,09,15.60
2014,10,22,00,10,15.60
2014,10,22,00,11,15.60
2014,10,22,00,12,15.60
2014,10,22,00,13,15.60
2014,10,22,00,14,15.60
2014,10,22,00,15,15.60
2014,10,22,00,16,15.60
2014,10,22,00,17,15.60
2014,10,22,00,18,15.60
2014,10,22,00,19,15.60
2014,10,22,00,20,15.60
2014,10,22,00,21,15.60
2014,10,22,00,22,15.60
2014,10,22,00,23,15.60
2014,10,22,00,24,15.60
2014,10,22,00,25,15.60
2014,10,22,00,26,15.60
2014,10,22,00,27,15.60
2014,10,22,00,28,15.60
2014,10,22,00,29,15.60
2014,10,22,00,30,15.60
2014,10,22,00,31,15.60
2014,10,22,00,32,15.60
2014,10,22,00,33,15.60
2014,10,22,00,34,15.60
2014,10,22,00,35,15.60
2014,10,22,00,36,15.60
2014,10,22,00,37,15.60
2014,10,22,00,38,15.60
2014,10,22,00,39,15.60
2014,10,22,00,40,15.60
2014,10,22,10,34,13.90
2014,10,22,10,35,13.90
2014,10,22,10,36,13.90
2014,10,22,10,37,13.90
2014,10,22,10,38,14.00
2014,10,22,10,39,14.00
2014,10,22,10,40,14.00
2014,10,22,10,41,14.10
2014,10,22,10,42,14.10
2014,10,22,10,43,14.10
2014,10,22,10,44,14.10
2014,10,22,10,45,14.10
2014,10,22,10,46,14.10
2014,10,22,10,47,14.10
2014,10,22,10,48,14.10
2014,10,22,10,49,14.10
2014,10,22,10,50,14.10
2014,10,22,10,51,14.10
2014,10,22,10,52,14.10
2014,10,22,10,53,14.10
2014,10,22,10,54,14.10
2014,10,22,10,55,14.20
2014,10,22,10,56,14.20
2014,10,22,10,57,14.20
2014,10,22,10,58,14.20
2014,10,22,10,59,14.20
2014,10,22,11,00,14.20
2014,10,22,11,01,14.20
2014,10,22,11,02,14.20
2014,10,22,11,03,14.20
2014,10,22,11,04,14.20
2014,10,22,11,05,14.20
2014,10,22,11,06,14.20
2014,10,22,11,07,14.20
2014,10,22,11,08,14.20
2014,10,22,11,09,14.20
2014,10,22,11,10,14.20
2014,10,22,11,11,14.20
2014,10,22,11,12,14.20
2014,10,22,11,13,14.20
2014,10,22,11,14,14.20
2014,10,22,11,15,14.20
2014,10,22,11,16,14.20
2014,10,22,11,17,14.20
2014,10,22,11,18,14.20
2014,10,22,11,19,14.20
2014,10,22,11,20,14.20
2014,10,22,11,21,14.20
2014,10,22,11,22,14.10
2014,10,22,11,23,14.20
2014,10,22,11,24,14.20
2014,10,22,11,25,14.20
2014,10,22,11,26,14.10
2014,10,22,11,27,14.20
2014,10,22,11,28,14.10
2014,10,22,11,29,14.10
2014,10,22,11,30,14.10
2014,10,22,11,31,14.20
2014,10,22,11,32,14.20
2014,10,22,11,33,14.20
2014,10,22,11,34,14.20
2014,10,22,11,35,14.20
2014,10,22,11,36,14.30
2014,10,22,11,37,14.30
2014,10,22,11,38,14.30
2014,10,22,11,39,14.30
2014,10,22,11,40,14.30
2014,10,22,11,41,14.30
2014,10,22,11,42,14.30
2014,10,22,11,43,14.30
2014,10,22,11,44,14.30
2014,10,22,11,45,14.30
2014,10,22,11,46,14.30
2014,10,22,11,47,14.30
2014,10,22,11,48,14.30
2014,10,22,11,49,14.30
2014,10,22,11,50,14.40
2014,10,22,11,51,14.30
2014,10,22,11,52,14.30
2014,10,22,11,53,14.30
2014,10,22,11,54,14.30
2014,10,22,11,55,14.30
2014,10,22,11,56,14.30
2014,10,22,11,57,14.30
2014,10,22,11,58,14.30
2014,10,22,11,59,14.20
2014,10,22,12,00,14.20
2014,10,22,12,01,14.20
2014,10,22,12,02,14.20
2014,10,22,12,03,14.20
2014,10,22,12,04,14.20
2014,10,22,12,05,14.20
2014,10,22,12,06,14.20
2014,10,22,12,07,14.20
2014,10,22,12,08,14.20
2014,10,22,12,09,14.20
2014,10,22,12,10,14.20
2014,10,22,12,11,14.10
2014,10,22,12,12,14.10
2014,10,22,12,13,14.10
2014,10,22,12,14,14.10
2014,10,22,12,15,14.10
2014,10,22,12,16,14.00
2014,10,22,12,17,14.00
2014,10,22,12,18,14.00
2014,10,22,12,19,14.00
2014,10,22,12,20,14.00
2014,10,22,12,21,14.00
2014,10,22,12,22,14.00
2014,10,22,12,23,14.00
2014,10,22,12,24,14.10
2014,10,22,12,25,14.10
2014,10,22,12,26,14.10
2014,10,22,12,27,14.10
2014,10,22,12,28,14.10
2014,10,22,12,29,14.20
2014,10,22,12,30,14.10
2014,10,22,12,31,14.20
2014,10,22,12,32,14.10
2014,10,22,12,33,14.10
2014,10,22,12,34,14.10
2014,10,22,12,35,14.10
2014,10,22,12,36,14.10
2014,10,22,12,37,14.10
2014,10,22,12,38,14.00
2014,10,22,12,39,14.00
2014,10,22,12,40,14.00
2014,10,22,12,41,14.00
2014,10,22,12,42,14.00
2014,10,22,12,43,14.00
2014,10,22,12,44,14.10
2014,10,22,12,45,14.10
2014,10,22,12,46,14.10
2014,10,22,12,47,14.10
2014,10,22,12,48,14.10
2014,10,22,12,49,14.00
2014,10,22,12,50,14.00
2014,10,22,12,51,13.90
2014,10,22,12,52,13.90
2014,10,22,12,53,13.90
2014,10,22,12,54,13.80
2014,10,22,12,55,13.80
2014,10,22,12,56,13.80
2014,10,22,12,57,13.90
2014,10,22,12,58,13.90
2014,10,22,12,59,13.90
2014,10,22,13,00,13.90
2014,10,22,13,01,13.90
2014,10,22,13,02,13.90
2014,10,22,13,03,13.90
2014,10,22,13,04,13.90
2014,10,22,13,05,13.90
2014,10,22,13,06,13.90
2014,10,22,13,07,13.90
2014,10,22,13,08,13.90
2014,10,22,13,09,13.90
2014,10,22,13,10,13.90
2014,10,22,13,11,14.00
2014,10,22,13,12,14.00
2014,10,22,13,13,13.90
2014,10,22,13,14,14.00
2014,10,22,13,15,14.00
2014,10,22,13,16,14.00
2014,10,22,13,17,14.00
2014,10,22,13,18,14.00
2014,10,22,13,19,13.90
2014,10,22,13,20,13.90
2014,10,22,13,21,13.90
2014,10,22,13,22,13.90
2014,10,22,13,23,13.90
2014,10,22,13,24,13.90
2014,10,22,13,25,13.90
2014,10,22,13,26,13.90
2014,10,22,13,27,13.90
2014,10,22,13,28,13.90
2014,10,22,13,29,13.90
2014,10,22,13,30,13.90
2014,10,22,13,31,13.90
2014,10,22,13,32,13.90
2014,10,22,13,33,13.90
2014,10,22,13,34,13.90
2014,10,22,13,35,13.90
2014,10,22,13,36,13.90
2014,10,22,13,37,13.90
2014,10,22,13,38,13.90
2014,10,22,13,39,13.80
2014,10,22,13,40,13.80
2014,10,22,13,41,13.90
2014,10,22,13,42,13.90
2014,10,22,13,43,13.90
2014,10,22,13,44,13.90
2014,10,22,13,45,13.90
2014,10,22,13,46,13.90
2014,10,22,13,47,13.90
2014,10,22,13,48,13.90
2014,10,22,13,49,13.90
2014,10,22,13,50,13.90
2014,10,22,13,51,13.90
2014,10,22,13,52,13.90
2014,10,22,13,53,13.90
2014,10,22,13,54,13.90
2014,10,22,13,55,13.90
2014,10,22,13,56,13.90
2014,10,22,13,57,13.90
2014,10,22,13,58,13.90
2014,10,22,13,59,13.90
2014,10,22,14,00,13.90
2014,10,22,14,01,13.90
2014,10,22,14,02,13.90
2014,10,22,14,03,13.90
2014,10,22,14,04,13.90
2014,10,22,14,05,13.90
2014,10,22,14,06,13.90
2014,10,22,14,07,13.90
2014,10,22,14,08,13.90
2014,10,22,14,09,14.00
2014,10,22,14,10,14.00
2014,10,22,14,11,14.00
2014,10,22,14,12,14.10
2014,10,22,14,13,14.10
2014,10,22,14,14,14.10
2014,10,22,14,15,14.10
2014,10,22,14,16,14.10
2014,10,22,14,17,14.10
2014,10,22,14,18,14.20
2014,10,22,14,19,14.20
2014,10,22,14,20,14.10
2014,10,22,14,21,14.10
2014,10,22,14,22,14.10
2014,10,22,14,23,14.10
2014,10,22,14,24,14.10
2014,10,22,14,25,14.10
2014,10,22,14,26,14.10
2014,10,22,14,27,14.10
2014,10,22,14,28,14.10
2014,10,22,14,29,14.10
2014,10,22,14,30,14.10
2014,10,22,14,31,14.20
2014,10,22,14,32,14.10
2014,10,22,14,33,14.20
2014,10,22,14,34,14.20
2014,10,22,14,35,14.20
2014,10,22,14,36,14.20
2014,10,22,14,37,14.20
2014,10,22,14,38,14.20
2014,10,22,14,39,14.20
2014,10,22,14,40,14.20
2014,10,22,14,41,14.10
2014,10,22,14,42,14.10
2014,10,22,14,43,14.00
2014,10,22,14,44,14.00
2014,10,22,14,45,13.90
2014,10,22,14,46,13.90
2014,10,22,14,47,13.80
2014,10,22,14,48,13.70
2014,10,22,14,49,13.70
2014,10,22,14,50,13.60
2014,10,22,14,51,13.60
2014,10,22,14,52,13.60
2014,10,22,14,53,13.60
2014,10,22,14,54,13.60
2014,10,22,14,55,13.60
2014,10,22,14,56,13.60
2014,10,22,14,57,13.60
2014,10,22,14,58,13.60
2014,10,22,14,59,13.60
2014,10,22,15,00,13.70
2014,10,22,15,01,13.70
2014,10,22,15,02,13.70
2014,10,22,15,03,13.70
2014,10,22,15,04,13.80
2014,10,22,15,05,13.80
2014,10,22,15,06,13.90
2014,10,22,15,07,13.90
2014,10,22,15,08,13.90
2014,10,22,15,09,14.00
2014,10,22,15,10,14.00
2014,10,22,15,11,14.10
2014,10,22,15,12,14.10
2014,10,22,15,13,14.20
2014,10,22,15,14,14.20
2014,10,22,15,15,14.20
2014,10,22,15,16,14.20
2014,10,22,15,17,14.30
2014,10,22,15,18,14.30
2014,10,22,15,19,14.30
2014,10,22,15,20,14.30
2014,10,22,15,21,14.30
2014,10,22,15,22,14.30
2014,10,22,15,23,14.30
2014,10,22,15,24,14.30
2014,10,22,15,25,14.30
2014,10,22,15,26,14.30
2014,10,22,15,27,14.30
2014,10,22,15,28,14.30
2014,10,22,15,29,14.30
2014,10,22,15,30,14.30
2014,10,22,15,31,14.30
2014,10,22,15,32,14.30
2014,10,22,15,33,14.30
2014,10,22,15,34,14.20
2014,10,22,15,35,14.20
2014,10,22,15,36,14.20
2014,10,22,15,37,14.20
2014,10,22,15,38,14.20
2014,10,22,15,39,14.20
2014,10,22,15,40,14.20
2014,10,22,15,41,14.20
2014,10,22,15,42,14.20
2014,10,22,15,43,14.20
2014,10,22,15,44,14.20
2014,10,22,15,45,14.20
2014,10,22,15,46,14.20
2014,10,22,15,47,14.20
2014,10,22,15,48,14.20
2014,10,22,15,49,14.20
2014,10,22,15,50,14.20
2014,10,22,15,51,14.20
2014,10,22,15,52,14.20
2014,10,22,15,53,14.20
2014,10,22,15,54,14.20
2014,10,22,15,55,14.10
2014,10,22,15,56,14.10
2014,10,22,15,57,14.10
2014,10,22,15,58,14.10
2014,10,22,15,59,14.10
2014,10,22,16,00,14.10
2014,10,22,16,01,14.10
2014,10,22,16,02,14.10
2014,10,22,16,03,14.10
2014,10,22,16,04,14.10
2014,10,22,16,05,14.10
2014,10,22,16,06,14.10
2014,10,22,16,07,14.10
2014,10,22,16,08,14.10
2014,10,22,16,09,14.10
2014,10,22,16,10,14.10
2014,10,22,16,11,14.10
2014,10,22,16,12,14.10
2014,10,22,16,13,14.10
2014,10,22,16,14,14.10
2014,10,22,16,15,14.10
2014,10,22,16,16,14.10
2014,10,22,16,17,14.10
2014,10,22,16,18,14.10
2014,10,22,16,19,14.10
2014,10,22,16,20,14.10
2014,10,22,16,21,14.10
2014,10,22,16,22,14.10
2014,10,22,16,23,14.10
2014,10,22,16,24,14.10
2014,10,22,16,25,14.10
2014,10,22,16,26,14.00
2014,10,22,16,27,14.00
2014,10,22,16,28,14.00
2014,10,22,16,29,14.00
2014,10,22,16,30,14.00
2014,10,22,16,31,14.00
2014,10,22,16,32,14.00
2014,10,22,16,41,13.90
2014,10,22,16,42,13.90
2014,10,22,16,43,13.90
2014,10,22,16,44,13.90
2014,10,22,16,45,13.90
2014,10,22,16,46,13.90
2014,10,22,16,47,13.90
2014,10,22,16,48,13.90
2014,10,22,16,49,13.90
2014,10,22,16,50,13.90
2014,10,22,16,51,13.90
2014,10,22,16,52,13.90
2014,10,22,16,53,13.90
2014,10,22,16,54,13.90
2014,10,22,16,55,13.90
2014,10,22,16,56,13.90
2014,10,22,16,57,13.90
2014,10,22,16,58,13.90
2014,10,22,16,59,13.80
2014,10,22,17,00,13.80
2014,10,22,17,01,13.80
2014,10,22,17,02,13.80
2014,10,22,17,03,13.80
2014,10,22,17,04,13.80
2014,10,22,17,05,13.80
2014,10,22,17,06,13.80
2014,10,22,17,07,13.80
2014,10,22,17,08,13.80
2014,10,22,17,09,13.80
2014,10,22,17,10,13.80
2014,10,22,17,11,13.80
2014,10,22,17,12,13.80
2014,10,22,17,13,13.80
2014,10,22,17,14,13.80
2014,10,22,17,15,13.80
2014,10,22,17,16,13.80
2014,10,22,17,17,13.80
2014,10,22,17,18,13.80
2014,10,22,17,19,13.80
2014,10,22,17,20,13.80
2014,10,22,17,21,13.80
2014,10,22,17,22,13.80
2014,10,22,17,23,13.80
2014,10,22,17,24,13.80
2014,10,22,17,25,13.80
2014,10,22,17,26,13.80
2014,10,22,17,27,13.80
2014,10,22,17,28,13.80
2014,10,22,17,29,13.80
2014,10,22,17,30,13.80
2014,10,22,17,31,13.80
2014,10,22,17,32,13.80
2014,10,22,17,33,13.80
2014,10,22,17,34,13.80
2014,10,22,17,35,13.80
2014,10,22,17,36,13.80
2014,10,22,17,37,13.80
2014,10,22,17,38,13.80
2014,10,22,17,39,13.80
2014,10,22,17,40,13.80
2014,10,22,17,41,13.70
2014,10,22,17,42,13.80
2014,10,22,17,43,13.70
2014,10,22,17,44,13.70
2014,10,22,17,45,13.70
2014,10,22,17,46,13.70
2014,10,22,17,47,13.70
2014,10,22,17,48,13.70
2014,10,22,17,49,13.70
2014,10,22,17,50,13.70
2014,10,22,17,51,13.70
2014,10,22,17,52,13.70
2014,10,22,17,53,13.70
2014,10,22,17,54,13.70
2014,10,22,17,55,13.70
2014,10,22,17,56,13.70
2014,10,22,17,57,13.70
2014,10,22,17,58,13.70
2014,10,22,17,59,13.70
2014,10,22,18,00,13.70
2014,10,22,18,01,13.70
2014,10,22,18,02,13.70
2014,10,22,18,03,13.70
2014,10,22,18,04,13.70
2014,10,22,18,05,13.70
2014,10,22,18,06,13.70
2014,10,22,18,07,13.70
2014,10,22,18,08,13.70
2014,10,22,18,09,13.70
2014,10,22,18,10,13.70
2014,10,22,18,11,13.60
2014,10,22,18,12,13.60
2014,10,22,18,13,13.60
2014,10,22,18,14,13.60
2014,10,22,18,15,13.60
2014,10,22,18,16,13.60
2014,10,22,18,17,13.60
2014,10,22,18,18,13.60
2014,10,22,18,19,13.60
2014,10,22,18,20,13.60
2014,10,22,18,21,13.60
2014,10,22,18,22,13.60
2014,10,22,18,23,13.60
2014,10,22,18,24,13.60
2014,10,22,18,25,13.60
2014,10,22,18,26,13.60
2014,10,22,18,27,13.60
2014,10,22,18,28,13.60
2014,10,22,18,29,13.60
2014,10,22,18,30,13.60
2014,10,22,18,31,13.60
2014,10,22,18,32,13.60
2014,10,22,18,33,13.60
2014,10,22,18,34,13.60
2014,10,22,18,35,13.60
2014,10,22,18,36,13.60
2014,10,22,18,37,13.60
2014,10,22,18,38,13.60
2014,10,22,18,39,13.60
2014,10,22,18,40,13.60
2014,10,22,18,41,13.60
2014,10,22,18,42,13.60
2014,10,22,18,43,13.60
2014,10,22,18,44,13.60
2014,10,22,18,45,13.60
2014,10,22,18,46,13.60
2014,10,22,18,47,13.60
2014,10,22,18,48,13.60
2014,10,22,18,49,13.60
2014,10,22,18,50,13.60
2014,10,22,18,51,13.60
2014,10,22,18,52,13.60
2014,10,22,18,53,13.60
2014,10,22,18,54,13.60
2014,10,22,18,55,13.50
2014,10,22,18,56,13.60
2014,10,22,18,57,13.50
2014,10,22,18,58,13.50
2014,10,22,18,59,13.50
2014,10,22,19,00,13.60
2014,10,22,19,01,13.60
2014,10,22,19,02,13.50
2014,10,22,19,03,13.50
2014,10,22,19,04,13.50
2014,10,22,19,05,13.50
2014,10,22,19,06,13.50
2014,10,22,19,07,13.50
2014,10,22,19,08,13.50
2014,10,22,19,09,13.50
2014,10,22,19,10,13.40
2014,10,22,19,11,13.40
2014,10,22,19,12,13.40
2014,10,22,19,13,13.40
2014,10,22,19,14,13.40
2014,10,22,19,15,13.40
2014,10,22,19,16,13.40
2014,10,22,19,17,13.40
2014,10,22,19,18,13.40
2014,10,22,19,19,13.40
2014,10,22,19,20,13.40
2014,10,22,19,21,13.40
2014,10,22,19,22,13.40
2014,10,22,19,23,13.40
2014,10,22,19,24,13.40
2014,10,22,19,25,13.40
2014,10,22,19,26,13.40
2014,10,22,19,27,13.40
2014,10,22,19,28,13.40
2014,10,22,19,29,13.40
2014,10,22,19,30,13.40
2014,10,22,19,31,13.40
2014,10,22,19,32,13.40
2014,10,22,19,33,13.40
2014,10,22,19,34,13.40
2014,10,22,19,35,13.40
2014,10,22,19,36,13.40
2014,10,22,19,37,13.40
2014,10,22,19,38,13.40
2014,10,22,19,39,13.40
2014,10,22,19,40,13.40
2014,10,22,19,41,13.40
2014,10,22,19,42,13.40
2014,10,22,19,43,13.40
2014,10,22,19,44,13.40
2014,10,22,19,45,13.40
2014,10,22,19,46,13.40
2014,10,22,19,47,13.40
2014,10,22,19,48,13.40
2014,10,22,19,49,13.40
2014,10,22,19,50,13.40
2014,10,22,19,51,13.40
2014,10,22,19,52,13.40
2014,10,22,19,53,13.40
2014,10,22,19,54,13.40
2014,10,22,19,55,13.40
2014,10,22,19,56,13.40
2014,10,22,19,57,13.40
2014,10,22,19,58,13.40
2014,10,22,19,59,13.40
2014,10,22,20,00,13.40
2014,10,22,20,01,13.40
2014,10,22,20,02,13.40
2014,10,22,20,03,13.40
2014,10,22,20,04,13.40
2014,10,22,20,05,13.40
2014,10,22,20,06,13.40
2014,10,22,20,07,13.40
2014,10,22,20,08,13.40
2014,10,22,20,09,13.50
2014,10,22,20,10,13.50
2014,10,22,20,11,13.50
2014,10,22,20,12,13.50
2014,10,22,20,13,13.60
2014,10,22,20,14,13.60
2014,10,22,20,15,13.60
2014,10,22,20,16,13.60
2014,10,22,20,17,13.60
2014,10,22,20,18,13.60
2014,10,22,20,19,13.60
2014,10,22,20,20,13.60
2014,10,22,20,21,13.60
2014,10,22,20,22,13.60
2014,10,22,20,23,13.60
2014,10,22,20,24,13.60
2014,10,22,20,25,13.60
2014,10,22,20,26,13.60
2014,10,22,20,27,13.60
2014,10,22,20,28,13.60
2014,10,22,20,29,13.60
2014,10,22,20,30,13.60
2014,10,22,20,31,13.60
2014,10,22,20,32,13.60
2014,10,22,20,33,13.60
2014,10,22,20,34,13.60
2014,10,22,20,35,13.60
2014,10,22,20,36,13.60
2014,10,22,20,37,13.60
2014,10,22,20,38,13.60
2014,10,22,20,39,13.60
2014,10,22,20,40,13.60
2014,10,22,20,41,13.60
2014,10,22,20,42,13.60
2014,10,22,20,43,13.60
2014,10,22,20,44,13.60
2014,10,22,20,45,13.60
2014,10,22,20,46,13.50
2014,10,22,20,47,13.50
2014,10,22,20,48,13.50
2014,10,22,20,49,13.50
2014,10,22,20,50,13.50
2014,10,22,20,51,13.50
2014,10,22,20,52,13.50
2014,10,22,20,53,13.50
2014,10,22,20,54,13.50
2014,10,22,20,55,13.50
2014,10,22,20,56,13.50
2014,10,22,20,57,13.50
2014,10,22,20,58,13.50
2014,10,22,20,59,13.50
2014,10,22,21,00,13.50
2014,10,22,21,01,13.50
2014,10,22,21,02,13.50
2014,10,22,21,03,13.50
2014,10,22,21,04,13.50
2014,10,22,21,05,13.50
2014,10,22,21,06,13.50
2014,10,22,21,07,13.50
2014,10,22,21,08,13.50
2014,10,22,21,09,13.50
2014,10,22,21,10,13.50
2014,10,22,21,11,13.50
2014,10,22,21,12,13.50
2014,10,22,21,13,13.50
2014,10,22,21,14,13.50
2014,10,22,21,15,13.50
2014,10,22,21,16,13.50
2014,10,22,21,17,13.50
2014,10,22,21,18,13.50
2014,10,22,21,19,13.50
2014,10,22,21,20,13.50
2014,10,22,21,21,13.50
2014,10,22,21,22,13.50
2014,10,22,21,23,13.50
2014,10,22,21,24,13.50
2014,10,22,21,25,13.50
2014,10,22,21,26,13.40
2014,10,22,21,27,13.40
2014,10,22,21,28,13.40
2014,10,22,21,29,13.40
2014,10,22,21,30,13.40
2014,10,22,21,31,13.30
2014,10,22,21,32,13.30
2014,10,22,21,33,13.30
2014,10,22,21,34,13.30
2014,10,22,21,35,13.30
2014,10,22,21,36,13.30
2014,10,22,21,37,13.30
2014,10,22,21,38,13.20
2014,10,22,21,39,13.20
2014,10,22,21,40,13.20
2014,10,22,21,41,13.20
2014,10,22,21,42,13.20
2014,10,22,21,43,13.10
2014,10,22,21,44,13.10
2014,10,22,21,45,13.10
2014,10,22,21,46,13.00
2014,10,22,21,47,13.00
2014,10,22,21,48,12.90
2014,10,22,21,49,12.90
2014,10,22,21,50,12.90
2014,10,22,21,51,12.90
2014,10,22,21,52,12.90
2014,10,22,21,53,12.90
2014,10,22,21,54,12.80
2014,10,22,21,55,12.80
2014,10,22,21,56,12.80
2014,10,22,21,57,12.80
2014,10,22,21,58,12.70
2014,10,22,21,59,12.70
2014,10,22,22,00,12.70
2014,10,22,22,01,12.70
2014,10,22,22,02,12.60
2014,10,22,22,03,12.60
2014,10,22,22,04,12.60
2014,10,22,22,05,12.60
2014,10,22,22,06,12.50
2014,10,22,22,07,12.50
2014,10,22,22,08,12.50
2014,10,22,22,09,12.50
2014,10,22,22,10,12.40
2014,10,22,22,11,12.40
2014,10,22,22,12,12.40
2014,10,22,22,13,12.40
2014,10,22,22,14,12.30
2014,10,22,22,15,12.30
2014,10,22,22,16,12.30
2014,10,22,22,17,12.30
2014,10,22,22,18,12.30
2014,10,22,22,19,12.30
2014,10,22,22,20,12.30
2014,10,22,22,21,12.30
2014,10,22,22,22,12.20
2014,10,22,22,23,12.20
2014,10,22,22,24,12.20
2014,10,22,22,25,12.20
2014,10,22,22,26,12.20
2014,10,22,22,27,12.10
2014,10,22,22,28,12.10
2014,10,22,22,29,12.10
2014,10,22,22,30,12.10
2014,10,22,22,31,12.10
2014,10,22,22,32,12.00
2014,10,22,22,33,12.00
2014,10,22,22,34,12.00
2014,10,22,22,35,12.00
2014,10,22,22,36,11.90
2014,10,22,22,37,11.90
2014,10,22,22,38,11.90
2014,10,22,22,39,11.90
2014,10,22,22,40,11.90
2014,10,22,22,41,11.90
2014,10,22,22,42,11.90
2014,10,22,22,43,11.80
2014,10,22,22,44,11.80
2014,10,22,22,45,11.80
2014,10,22,22,46,11.80
2014,10,22,22,47,11.80
2014,10,22,22,48,11.80
2014,10,22,22,49,11.80
2014,10,22,22,50,11.80
2014,10,22,22,51,11.70
2014,10,22,22,52,11.70
2014,10,22,22,53,11.70
2014,10,22,22,54,11.70
2014,10,22,22,55,11.70
2014,10,22,22,56,11.60
2014,10,22,22,57,11.60
2014,10,22,22,58,11.50
2014,10,22,22,59,11.50
2014,10,22,23,00,11.50
2014,10,22,23,01,11.50
2014,10,22,23,02,11.50
2014,10,22,23,03,11.60
2014,10,22,23,04,11.60
2014,10,22,23,05,11.70
2014,10,22,23,06,11.70
2014,10,22,23,07,11.60
2014,10,22,23,08,11.60
2014,10,22,23,09,11.50
2014,10,22,23,10,11.60
2014,10,22,23,11,11.60
2014,10,22,23,12,11.50
2014,10,22,23,13,11.50
2014,10,22,23,14,11.50
2014,10,22,23,15,11.50
2014,10,22,23,16,11.50
2014,10,22,23,17,11.50
2014,10,22,23,18,11.50
2014,10,22,23,19,11.40
2014,10,22,23,20,11.40
2014,10,22,23,21,11.40
2014,10,22,23,22,11.30
2014,10,22,23,23,11.30
2014,10,22,23,24,11.30
2014,10,22,23,25,11.20
2014,10,22,23,26,11.20
2014,10,22,23,27,11.20
2014,10,22,23,28,11.10
2014,10,22,23,29,11.10
2014,10,22,23,30,11.10
2014,10,22,23,31,11.10
2014,10,22,23,32,11.10
2014,10,22,23,33,11.00
2014,10,22,23,34,11.00
2014,10,22,23,35,11.00
2014,10,22,23,36,10.90
2014,10,22,23,37,10.90
2014,10,22,23,38,10.90
2014,10,22,23,39,10.90
2014,10,22,23,40,10.90
2014,10,22,23,41,10.90
2014,10,22,23,42,10.90
2014,10,22,23,43,10.90
2014,10,22,23,44,10.80
2014,10,22,23,45,10.80
2014,10,22,23,46,10.80
2014,10,22,23,47,10.80
2014,10,22,23,48,10.80
2014,10,22,23,49,10.80
2014,10,22,23,50,10.80
2014,10,22,23,51,10.80
2014,10,22,23,52,10.80
2014,10,22,23,53,10.80
2014,10,22,23,54,10.80
2014,10,22,23,55,10.80
2014,10,22,23,56,10.90
2014,10,22,23,57,10.90
2014,10,22,23,58,10.80
2014,10,22,23,59,10.80
